Springfield, IL

11:15 AM CST on December 12, 2019 (GMT -0600)
Capital

Weather History for KSPI - October, 2019

Change the Weather History Date:

Tuesday, October 29, 2019

  Actual Average Record
Temperature  
Mean Temperature 42 °F 51 °F  
Max Temperature 49 °F 61 °F 83 °F (1937)
Min Temperature 35 °F 41 °F 17 °F (1952)
Degree Days  
Heating Degree Days 23 14  
Month to date heating degree days 321 298  
Since 1 July heating degree days 322 379  
Cooling Degree Days 0 0  
Month to date cooling degree days 32 19  
Year to date cooling degree days 1309 1118  
Moisture  
Dew Point 35 °F    
Average Humidity 82    
Maximum Humidity 93    
Minimum Humidity 70    
Precipitation  
Precipitation 0.44 in 0.11 in 1.89 in (2009)
Month to date precipitation 3.48 2.95  
Year to date precipitation 44.03 31.50  
Snow  
Snow 0.00 in 0.00 in 1.80 in (1925)
Month to date snowfall 0.0 0.0  
Since 1 July snowfall 0.0 0.0  
Since 1 September snowfall 0.0 0.0  
Snow Depth 0.00 in    
Sea Level Pressure  
Sea Level Pressure 30.20 in    
Wind  
Wind Speed 9 mph (NNW)    
Max Wind Speed 21 mph    
Max Gust Speed 30 mph    
Visibility 8 miles    
Events Rain    
T = Trace of Precipitation, MM = Missing Value Source: NWS Daily Summary

Daily Weather History Graph

Daily Weather History Graph

Search for Another Location

Airport or City:

Astronomy

Oct. 29, 2019 Rise Set
Actual Time 7:23 AM CDT 6:00 PM CDT
Civil Twilight 6:56 AM CDT 6:28 PM CDT
Nautical Twilight 6:24 AM CDT 6:59 PM CDT
Astronomical Twilight 5:52 AM CDT 7:31 PM CDT
Moon 8:57 AM CDT (10/29) 7:24 PM CDT (10/29)
Length of Visible Light 11h 32m
Length of Day
10h 36m
Waxing Crescent, 3% of the Moon is Illuminated
Oct 29
Waxing Crescent
Nov 4
First Quarter
Nov 12
Full
Nov 19
Last Quarter
Nov 26
New

Hourly Weather History & Observations

Time (CDT) Temp. Windchill Dew Point Humidity Pressure Visibility Wind Dir Wind Speed Gust Speed Precip Events Conditions
12:00 AM 51.1 °F - 46.9 °F 86% 30.00 in 7.0 mi West 6.9 mph - N/A   Scattered Clouds
12:10 AM 50.0 °F - 48.0 °F 93% 30.00 in 6.0 mi WNW 6.9 mph - N/A   Mostly Cloudy
12:38 AM 50.0 °F - 46.9 °F 89% 30.01 in 6.0 mi WNW 5.8 mph - N/A   Overcast
12:52 AM 48.9 °F - 46.0 °F 90% 30.02 in 6.0 mi NNW 6.9 mph - N/A   Overcast
1:52 AM 44.1 °F 36.8 °F 41.0 °F 89% 30.05 in 5.0 mi North 16.1 mph 25.3 mph 0.01 in Rain Light Rain
2:52 AM 39.0 °F 30.3 °F 36.0 °F 89% 30.07 in 4.0 mi North 16.1 mph - 0.01 in Rain Light Rain
3:52 AM 37.0 °F 27.7 °F 35.1 °F 93% 30.09 in 4.0 mi North 16.1 mph 25.3 mph 0.01 in Rain Light Rain
4:16 AM 37.0 °F 29.3 °F 34.0 °F 89% 30.08 in 7.0 mi North 11.5 mph 19.6 mph 0.00 in   Overcast
4:48 AM 37.4 °F 31.4 °F 35.6 °F 93% 30.10 in 5.0 mi North 8.1 mph - 0.00 in   Overcast
4:52 AM 37.0 °F 30.4 °F 35.1 °F 93% 30.12 in 5.0 mi NNW 9.2 mph - 0.00 in   Overcast
5:52 AM 37.0 °F 31.0 °F 34.0 °F 89% 30.15 in 10.0 mi NNW 8.1 mph - N/A   Overcast
6:52 AM 37.0 °F 31.6 °F 34.0 °F 89% 30.17 in 9.0 mi NNW 6.9 mph - N/A   Overcast
7:52 AM 37.0 °F 29.8 °F 33.1 °F 86% 30.19 in 10.0 mi NNW 10.4 mph - N/A   Overcast
8:52 AM 37.0 °F 31.0 °F 34.0 °F 89% 30.23 in 10.0 mi NW 8.1 mph - N/A   Overcast
9:02 AM 37.0 °F 29.8 °F 34.0 °F 89% 30.22 in 10.0 mi NNW 10.4 mph - N/A   Overcast
9:52 AM 37.0 °F 29.8 °F 33.1 °F 86% 30.26 in 10.0 mi NNW 10.4 mph - N/A   Overcast
10:52 AM 39.0 °F 31.8 °F 33.1 °F 79% 30.27 in 10.0 mi North 11.5 mph - N/A   Overcast
11:52 AM 39.0 °F 32.8 °F 33.1 °F 79% 30.28 in 10.0 mi NW 9.2 mph - N/A   Overcast
12:52 PM 37.9 °F 32.1 °F 32.0 °F 79% 30.27 in 10.0 mi North 8.1 mph - N/A   Overcast
1:52 PM 39.0 °F 33.4 °F 32.0 °F 76% 30.28 in 10.0 mi NW 8.1 mph - N/A   Overcast
2:52 PM 39.0 °F 33.4 °F 32.0 °F 76% 30.27 in 10.0 mi NNW 8.1 mph - N/A   Overcast
3:19 PM 39.0 °F 34.0 °F 32.0 °F 76% 30.26 in 10.0 mi NNW 6.9 mph - N/A   Overcast
3:52 PM 39.0 °F 32.8 °F 30.9 °F 73% 30.27 in 10.0 mi North 9.2 mph - N/A   Overcast
4:52 PM 39.0 °F 34.0 °F 30.9 °F 73% 30.28 in 10.0 mi North 6.9 mph - N/A   Overcast
5:52 PM 37.9 °F 32.1 °F 30.9 °F 76% 30.29 in 10.0 mi North 8.1 mph - N/A   Overcast
6:52 PM 37.9 °F 32.1 °F 30.9 °F 76% 30.30 in 10.0 mi North 8.1 mph - N/A   Overcast
7:52 PM 37.9 °F 32.1 °F 30.9 °F 76% 30.30 in 10.0 mi North 8.1 mph - N/A   Overcast
8:52 PM 37.0 °F 29.3 °F 30.9 °F 79% 30.28 in 10.0 mi NNE 11.5 mph - N/A   Overcast
9:52 PM 37.0 °F 30.4 °F 32.0 °F 82% 30.30 in 6.0 mi NNE 9.2 mph - 0.02 in Rain Rain
10:12 PM 36.0 °F 30.3 °F 32.0 °F 86% 30.28 in 7.0 mi NNE 6.9 mph - 0.03 in Rain Rain
10:52 PM 36.0 °F 29.6 °F 33.1 °F 89% 30.28 in 7.0 mi NNE 8.1 mph - 0.07 in Rain Light Rain
11:20 PM 36.0 °F 29.0 °F 32.0 °F 86% 30.28 in 6.0 mi NNE 9.2 mph - 0.02 in Rain Rain
11:52 PM 35.1 °F 27.9 °F 32.0 °F 89% 30.27 in 3.0 mi NNE 9.2 mph - 0.11 in Rain Heavy Rain